Location: Charlottetown
(46.2330°N, 63.1330°W)
Time: 21:22:54
(UTC-03:00)

Daily predictions for brighter satellites

Satellite Brightness Start Highest point End
(mag) Time Altitude Azimuth Time Altitude Azimuth Time Altitude Azimuth
PSLV R/B 3.2 21:44:45 10° SSE 21:47:48 67° ENE 21:50:51 10° N
Cosmos 2151 3.5 21:44:05 10° SSE 21:48:01 41° E 21:51:59 10° NNE
Cosmos 304 Rocket 3.9 21:43:30 10° NNW 21:48:20 67° ENE 21:53:06 10° SSE
Cosmos 405 3.0 21:45:21 10° N 21:49:01 76° ENE 21:52:38 10° SSE
AVUM R/B 2.8 21:49:34 10° S 21:51:47 42° ESE 21:54:14 10° NE
YAOGAN 6 3.0 21:49:33 10° SSE 21:53:06 49° ENE 21:56:36 10° N
Cosmos 2219 Rocket 3.6 21:48:37 10° N 21:53:19 26° NE 21:57:59 10° ESE
H-2A R/B 3.5 21:49:47 10° ESE 21:54:07 26° ENE 21:58:32 10° N
Cosmos 1151 Rocket 3.0 21:51:57 10° N 21:56:17 88° E 22:00:36 10° S
Cosmos 1328 4.3 21:53:54 10° SSE 21:57:38 42° E 22:01:24 10° NNE
MetOp-A 4.2 21:53:40 10° SSE 21:59:01 81° ENE 22:04:24 10° NNW
ARGOS 3.5 21:55:58 10° SE 22:01:12 52° ENE 22:06:25 10° N
Cosmos 1805 Rocket 4.3 21:57:18 10° SSE 22:01:20 35° E 22:05:24 10° NNE
Cosmos 1680 Rocket 3.5 21:58:28 10° NNW 22:03:44 87° ENE 22:09:00 10° SSE
SPOT 1/Viking Rocket 3.7 22:00:54 10° SSE 22:05:58 66° ENE 22:11:06 10° N
Cosmos 923 Rocket 4.3 22:02:13 10° NNW 22:07:25 69° WSW 22:12:34 10° S
CZ-4B R/B 3.7 22:06:38 10° NNE 22:11:52 57° E 22:16:59 10° S
Cosmos 2058 3.2 22:10:20 10° SSE 22:14:16 48° E 22:18:14 10° NNE
Cosmos 2219 3.5 22:09:18 10° S 22:14:48 48° ESE 22:20:19 10° NE
Cosmos 1707 Rocket 3.8 22:12:43 10° N 22:17:01 56° ENE 22:20:54 12° SSE
Meteor 1-27 4.4 22:11:56 10° N 22:17:38 62° ENE 22:22:52 12° SSE
H-2A R/B 3.8 22:13:50 10° SSW 22:17:53 32° W 22:21:57 10° NNW
Nadezhda 2 Rocket 4.5 22:12:14 10° S 22:18:21 73° E 22:24:26 10° NNE
Cosmos 2322 4.1 22:14:57 10° NNW 22:20:37 63° WSW 22:26:14 10° S
Cosmos 1898 Rocket 4.3 22:16:08 10° SSE 22:20:37 31° E 22:25:09 10° NE
Terra 2.8 22:16:53 12° SE 22:20:45 33° ENE 22:25:01 10° N
Cosmos 2237 Rocket 3.5 22:16:50 10° N 22:21:47 29° NE 22:26:42 10° ESE
USA 229 DEB 3.9 22:15:41 10° SW 22:22:38 82° NW 22:29:43 10° NE
USA 229 3.9 22:15:47 10° SW 22:22:44 83° NW 22:29:49 10° NE
Cosmos 1666 Rocket 4.0 22:19:29 11° SSE 22:23:29 44° E 22:27:42 10° NNE
Cosmos 2322 Rocket 4.2 22:20:20 10° NW 22:24:30 22° W 22:28:37 10° SSW
SL-14 R/B 3.8 22:21:31 12° SSE 22:24:50 41° E 22:28:37 10° NNE
Cosmos 1726 2.5 22:21:30 10° N 22:25:12 51° ENE 22:28:05 16° SSE
Cosmos 1271 Rocket 3.7 22:21:53 10° N 22:25:23 33° ENE 22:28:01 16° SE
CZ-4 R/B 3.9 22:27:12 10° NNE 22:32:09 63° ESE 22:36:58 10° S
SL-12 R/B (AUX MOTOR) 3.6 22:32:31 10° WSW 22:33:59 89° SSE 22:35:43 10° ENE
SL-16 R/B 4.4 22:30:31 10° NW 22:34:26 19° W 22:38:22 10° SW
Cosmos 2360 Rocket 3.0 22:29:46 10° NW 22:35:10 47° WSW 22:40:33 10° S
NOAA 11 4.3 22:34:49 12° SSE 22:39:52 82° WSW 22:45:22 10° NNW
SeaSat 1 4.2 22:36:26 10° E 22:40:16 23° NE 22:44:05 10° N
IGS 5A 4.1 22:38:12 17° SE 22:41:01 42° ENE 22:44:58 10° N
Iridium 2 4.5 22:39:50 19° SE 22:42:02 35° E 22:45:35 10° NNE
NOSS 3-1 (A) 3.8 22:36:44 10° S 22:42:15 43° ESE 22:48:20 10° NE
NOSS 0 Rocket 4.3 22:38:29 10° NNW 22:44:33 55° ENE 22:49:20 16° SE
Meteor 2-10 4.4 22:43:25 10° N 22:49:03 60° ENE 22:53:13 19° SSE
Meteor 1-11 4.3 22:43:38 10° S 22:49:25 85° E 22:55:10 10° NNE
USA 32 4.1 22:44:13 10° N 22:49:30 71° E 22:53:29 18° SSE
Meteor 1-4 Rocket 2.6 22:53:48 10° N 22:57:36 87° E 22:59:48 23° SSE
Cosmos 2242 Rocket 3.6 22:54:01 10° N 22:58:30 90° WSW 23:01:35 20° S
FALCON 9 R/B 4.3 22:36:15 10° WSW 23:00:48 47° S 23:06:53 15° ESE
Cosmos 2227 Rocket 3.0 23:00:43 20° SSE 23:03:37 33° ESE 23:08:36 10° NE
ATLAS 2AS CENTAUR R/B 3.8 23:00:49 18° SSE 23:05:05 31° ESE 23:11:48 10° NE
SL-08 RB Rocket 4.4 23:02:37 14° S 23:06:11 47° W 23:10:33 10° NNW
Cosmos 1626 3.0 23:05:29 26° SE 23:06:50 35° E 23:10:17 10° NNE
Cosmos 1300 4.0 23:04:27 10° NNW 23:08:00 36° W 23:11:00 13° SSW
Cosmos 2333 Rocket 2.4 23:03:41 10° NNW 23:09:26 68° ENE 23:13:11 22° SE
SL-16 R/B 3.4 23:08:35 10° NNW 23:13:42 33° NE 23:17:53 14° ESE
Cosmos 2298 Rocket 4.1 23:08:54 10° SSW 23:14:14 82° WNW 23:19:36 10° NNE
Cosmos 1862 Rocket 3.6 23:11:05 10° N 23:15:27 64° E 23:17:36 28° SSE
CARTOSAT-1 3.8 23:17:10 23° S 23:19:46 65° WSW 23:24:04 10° NNW
COSMOS 2428 3.6 23:15:37 10° NW 23:20:55 42° WSW 23:24:46 18° S
Cosmos 1937 Rocket 3.4 23:18:23 16° SSW 23:22:34 76° ESE 23:27:47 10° NNE
ATLAS 3B R/B 3.3 23:16:24 10° NNW 23:23:23 52° NE 23:28:52 15° ESE
Sich 1 3.9 23:20:01 11° SSW 23:24:09 49° WNW 23:28:26 10° N
Cosmos 1633 Rocket 3.8 23:21:04 12° SSW 23:25:01 51° WNW 23:29:18 10° N
NOSS 3-1 (C) 3.6 23:23:57 10° SW 23:29:55 79° NW 23:36:38 10° NE
Cosmos 1869 3.3 23:26:21 10° N 23:30:25 75° E 23:32:03 34° SSE
Cosmos 1455 2.1 23:27:11 10° N 23:31:00 86° W 23:32:31 35° S
Cosmos 2297 Rocket 2.8 23:28:40 26° SSE 23:31:00 38° ESE 23:36:10 10° NE
H-2A R/B 2.7 23:29:35 20° S 23:33:11 52° W 23:38:31 10° NNW
GEOS 3 Rocket 4.2 23:30:01 17° ESE 23:33:50 51° NE 23:38:50 10° NNW
Cosmos 990 Rocket 3.9 23:33:38 23° S 23:36:51 72° ESE 23:42:00 10° NNE
Cosmos 2219 Rocket 2.5 23:32:09 10° NNW 23:37:39 59° WSW 23:40:42 26° S
Cosmos 1269 Rocket 4.4 23:33:42 10° NNW 23:38:55 54° ENE 23:41:44 26° SE
Cosmos 1241 Rocket 4.5 23:35:57 19° SSW 23:40:20 59° ESE 23:46:28 10° NE
Lacrosse 4 Rocket 2.6 23:36:40 10° NNW 23:40:48 37° NE 23:43:16 21° ESE
Cosmos 1869 Rocket 4.5 23:44:44 29° SE 23:45:59 34° E 23:50:03 10° NNE
Nadezhda 1 Rocket 4.3 23:42:42 10° NNW 23:48:40 58° W 23:52:37 22° SSW
ALOS 2 3.9 23:50:06 22° ESE 23:51:57 31° ENE 23:55:49 10° N
Cosmos 389 Rocket 3.8 23:48:54 10° N 23:52:06 29° ENE 23:52:53 26° E
Cosmos 1980 3.9 23:47:25 10° NNW 23:53:00 62° WSW 23:55:44 30° S
